Year,Month,Day,Hour,Minute,Value (Times are PST for temperature in C)
2012,12,04,00,57,7.30
2012,12,04,00,58,7.30
2012,12,04,00,59,7.30
2012,12,04,01,00,7.30
2012,12,04,01,01,7.30
2012,12,04,01,02,7.30
2012,12,04,01,03,7.40
2012,12,04,01,04,7.40
2012,12,04,01,05,7.40
2012,12,04,01,06,7.40
2012,12,04,01,07,7.40
2012,12,04,01,08,7.40
2012,12,04,01,09,7.50
2012,12,04,01,10,7.50
2012,12,04,01,11,7.50
2012,12,04,01,12,7.50
2012,12,04,01,13,7.50
2012,12,04,01,20,7.60
2012,12,04,01,21,7.60
2012,12,04,01,22,7.60
2012,12,04,01,23,7.60
2012,12,04,01,24,7.60
2012,12,04,01,25,7.70
2012,12,04,01,26,7.70
2012,12,04,01,27,7.70
2012,12,04,01,28,7.70
2012,12,04,01,29,7.70
2012,12,04,01,30,7.70
2012,12,04,01,31,7.70
2012,12,04,01,32,7.80
2012,12,04,01,33,7.70
2012,12,04,01,34,7.70
2012,12,04,01,35,7.70
2012,12,04,01,36,7.70
2012,12,04,01,37,7.70
2012,12,04,01,38,7.70
2012,12,04,01,39,7.70
2012,12,04,01,40,7.70
2012,12,04,01,41,7.70
2012,12,04,01,42,7.70
2012,12,04,01,43,7.80
2012,12,04,01,45,7.80
2012,12,04,01,46,7.80
2012,12,04,01,47,7.70
2012,12,04,01,48,7.70
2012,12,04,01,49,7.70
2012,12,04,03,08,8.00
2012,12,04,03,11,7.90
2012,12,04,03,21,7.70
2012,12,04,03,24,7.80
2012,12,04,03,25,7.80
2012,12,04,03,26,7.80
2012,12,04,03,27,7.80
2012,12,04,03,28,7.80
2012,12,04,03,29,7.80
2012,12,04,03,30,7.80
2012,12,04,03,31,7.80
2012,12,04,03,32,7.80
2012,12,04,03,33,7.80
2012,12,04,03,34,7.80
2012,12,04,03,35,7.80
2012,12,04,03,36,7.80
2012,12,04,03,37,7.80
2012,12,04,03,38,7.80
2012,12,04,03,39,7.80
2012,12,04,03,40,7.90
2012,12,04,03,41,7.90
2012,12,04,03,42,7.90
2012,12,04,03,43,7.90
2012,12,04,03,44,7.90
2012,12,04,03,45,7.90
2012,12,04,03,46,7.90
2012,12,04,03,47,7.90
2012,12,04,03,48,7.90
2012,12,04,03,49,7.90
2012,12,04,03,50,7.90
2012,12,04,03,51,7.90
2012,12,04,03,52,7.90
2012,12,04,03,53,7.90
2012,12,04,03,54,7.90
2012,12,04,03,55,7.90
2012,12,04,03,56,7.90
2012,12,04,03,57,7.90
2012,12,04,03,58,7.90
2012,12,04,03,59,8.00
2012,12,04,04,00,8.00
2012,12,04,04,01,8.00
2012,12,04,04,02,7.90
2012,12,04,04,03,7.90
2012,12,04,04,04,7.90
2012,12,04,04,05,7.90
2012,12,04,04,06,7.90
2012,12,04,04,07,7.90
2012,12,04,04,08,7.90
2012,12,04,04,09,7.90
2012,12,04,04,10,7.80
2012,12,04,04,11,7.80
2012,12,04,04,12,7.80
2012,12,04,04,13,7.80
2012,12,04,04,14,7.80
2012,12,04,04,15,7.80
2012,12,04,04,16,7.80
2012,12,04,04,17,7.90
2012,12,04,04,18,7.90
2012,12,04,04,19,7.90
2012,12,04,04,20,7.90
2012,12,04,04,21,8.00
2012,12,04,04,22,8.00
2012,12,04,04,23,8.00
2012,12,04,04,24,8.00
2012,12,04,04,25,8.00
2012,12,04,04,26,8.00
2012,12,04,04,27,8.10
2012,12,04,04,28,8.10
2012,12,04,04,29,8.10
2012,12,04,04,30,8.10
2012,12,04,04,31,8.10
2012,12,04,04,32,8.10
2012,12,04,04,33,8.10
2012,12,04,04,34,8.10
2012,12,04,04,35,8.10
2012,12,04,04,36,8.10
2012,12,04,04,37,8.20
2012,12,04,04,38,8.20
2012,12,04,04,39,8.20
2012,12,04,04,40,8.20
2012,12,04,04,41,8.20
2012,12,04,04,42,8.20
2012,12,04,04,43,8.20
2012,12,04,04,44,8.20
2012,12,04,04,45,8.20
2012,12,04,04,46,8.20
2012,12,04,04,47,8.20
2012,12,04,04,48,8.20
2012,12,04,04,49,8.20
2012,12,04,04,50,8.20
2012,12,04,04,51,8.10
2012,12,04,04,52,8.10
2012,12,04,04,53,8.10
2012,12,04,04,54,8.10
2012,12,04,04,55,8.10
2012,12,04,04,56,8.10
2012,12,04,04,57,8.10
2012,12,04,04,58,8.10
2012,12,04,04,59,8.00
2012,12,04,05,00,8.00
2012,12,04,05,01,8.00
2012,12,04,05,02,8.00
2012,12,04,05,03,8.00
2012,12,04,05,04,8.10
2012,12,04,05,05,8.00
2012,12,04,05,06,8.00
2012,12,04,05,07,8.00
2012,12,04,05,08,8.00
2012,12,04,05,09,8.00
2012,12,04,05,10,8.00
2012,12,04,05,11,8.10
2012,12,04,05,12,8.10
2012,12,04,05,13,8.10
2012,12,04,05,14,8.10
2012,12,04,05,15,8.10
2012,12,04,05,16,8.10
2012,12,04,05,17,8.10
2012,12,04,05,18,8.10
2012,12,04,05,19,8.10
2012,12,04,05,20,8.20
2012,12,04,05,21,8.20
2012,12,04,05,22,8.20
2012,12,04,05,23,8.20
2012,12,04,05,24,8.20
2012,12,04,05,25,8.20
2012,12,04,05,26,8.20
2012,12,04,05,27,8.20
2012,12,04,05,28,8.20
2012,12,04,05,29,8.20
2012,12,04,05,30,8.20
2012,12,04,05,31,8.20
2012,12,04,05,32,8.20
2012,12,04,05,33,8.20
2012,12,04,05,34,8.20
2012,12,04,05,35,8.20
2012,12,04,05,36,8.20
2012,12,04,05,37,8.20
2012,12,04,05,38,8.20
2012,12,04,05,39,8.20
2012,12,04,05,40,8.20
2012,12,04,05,41,8.20
2012,12,04,05,42,8.30
2012,12,04,05,43,8.30
2012,12,04,05,44,8.30
2012,12,04,05,45,8.30
2012,12,04,05,46,8.30
2012,12,04,05,47,8.30
2012,12,04,05,48,8.30
2012,12,04,05,49,8.30
2012,12,04,05,50,8.30
2012,12,04,05,51,8.30
2012,12,04,05,52,8.20
2012,12,04,05,53,8.20
2012,12,04,05,54,8.20
2012,12,04,05,55,8.20
2012,12,04,05,56,8.20
2012,12,04,05,57,8.10
2012,12,04,05,58,8.10
2012,12,04,05,59,8.10
2012,12,04,06,00,8.10
2012,12,04,06,01,8.00
2012,12,04,06,02,8.00
2012,12,04,06,03,7.90
2012,12,04,06,04,7.90
2012,12,04,06,05,7.90
2012,12,04,06,06,7.80
2012,12,04,06,07,7.80
2012,12,04,06,08,7.80
2012,12,04,06,09,7.80
2012,12,04,06,10,7.80
2012,12,04,06,11,7.80
2012,12,04,06,12,7.80
2012,12,04,06,13,7.80
2012,12,04,06,14,7.80
2012,12,04,06,15,7.80
2012,12,04,06,16,7.80
2012,12,04,06,17,7.80
2012,12,04,06,18,7.80
2012,12,04,06,19,7.90
2012,12,04,06,20,7.90
2012,12,04,06,21,7.90
2012,12,04,06,22,7.90
2012,12,04,06,23,8.00
2012,12,04,06,24,8.10
2012,12,04,06,25,8.10
2012,12,04,06,26,8.20
2012,12,04,06,27,8.20
2012,12,04,06,28,8.30
2012,12,04,06,29,8.30
2012,12,04,06,30,8.40
2012,12,04,06,31,8.50
2012,12,04,06,32,8.60
2012,12,04,06,33,8.70
2012,12,04,06,34,8.70
2012,12,04,06,35,8.80
2012,12,04,06,36,8.80
2012,12,04,06,37,8.80
2012,12,04,06,38,8.90
2012,12,04,06,39,9.00
2012,12,04,06,40,9.10
2012,12,04,06,41,9.20
2012,12,04,06,42,9.20
2012,12,04,06,43,9.30
2012,12,04,06,44,9.30
2012,12,04,06,45,9.40
2012,12,04,06,46,9.40
2012,12,04,06,47,9.40
2012,12,04,06,48,9.40
2012,12,04,06,49,9.40
2012,12,04,06,50,9.50
2012,12,04,06,51,9.50
2012,12,04,06,52,9.50
2012,12,04,06,53,9.50
2012,12,04,06,54,9.50
2012,12,04,06,55,9.60
2012,12,04,06,56,9.60
2012,12,04,06,57,9.60
2012,12,04,06,58,9.60
2012,12,04,06,59,9.60
2012,12,04,07,00,9.60
2012,12,04,07,01,9.60
2012,12,04,07,02,9.60
2012,12,04,07,03,9.60
2012,12,04,07,04,9.60
2012,12,04,07,05,9.60
2012,12,04,07,06,9.60
2012,12,04,07,07,9.60
2012,12,04,07,08,9.60
2012,12,04,07,09,9.50
2012,12,04,07,10,9.50
2012,12,04,07,11,9.40
2012,12,04,07,12,9.40
2012,12,04,07,13,9.30
2012,12,04,07,14,9.30
2012,12,04,07,15,9.30
2012,12,04,07,16,9.30
2012,12,04,07,17,9.30
2012,12,04,07,18,9.30
2012,12,04,07,19,9.30
2012,12,04,07,20,9.30
2012,12,04,07,21,9.30
2012,12,04,07,22,9.30
2012,12,04,07,23,9.30
2012,12,04,07,24,9.30
2012,12,04,07,25,9.30
2012,12,04,07,26,9.30
2012,12,04,07,27,9.30
2012,12,04,07,28,9.30
2012,12,04,07,29,9.30
2012,12,04,07,30,9.30
2012,12,04,07,31,9.30
2012,12,04,07,32,9.30
2012,12,04,07,33,9.30
2012,12,04,07,34,9.30
2012,12,04,07,35,9.30
2012,12,04,07,36,9.20
2012,12,04,07,37,9.20
2012,12,04,07,38,9.20
2012,12,04,07,39,9.20
2012,12,04,07,40,9.20
2012,12,04,07,41,9.30
2012,12,04,07,42,9.30
2012,12,04,07,43,9.30
2012,12,04,07,44,9.30
2012,12,04,07,45,9.30
2012,12,04,07,46,9.30
2012,12,04,07,47,9.30
2012,12,04,07,48,9.30
2012,12,04,07,49,9.30
2012,12,04,07,50,9.30
2012,12,04,07,51,9.30
2012,12,04,07,52,9.30
2012,12,04,07,53,9.20
2012,12,04,07,54,9.20
2012,12,04,07,55,9.20
2012,12,04,07,56,9.20
2012,12,04,07,57,9.20
2012,12,04,07,58,9.20
2012,12,04,07,59,9.20
2012,12,04,08,00,9.10
2012,12,04,08,01,9.10
2012,12,04,08,02,9.00
2012,12,04,08,03,9.00
2012,12,04,08,04,9.00
2012,12,04,08,05,8.90
2012,12,04,08,06,8.90
2012,12,04,08,07,8.90
2012,12,04,08,08,8.80
2012,12,04,08,09,8.80
2012,12,04,08,10,8.80
2012,12,04,08,11,8.80
2012,12,04,08,12,8.80
2012,12,04,08,13,8.80
2012,12,04,08,14,8.80
2012,12,04,08,15,8.80
2012,12,04,08,16,8.80
2012,12,04,08,17,8.80
2012,12,04,08,18,8.80
2012,12,04,08,19,8.90
2012,12,04,08,20,8.90
2012,12,04,08,21,8.90
2012,12,04,08,22,8.90
2012,12,04,08,23,8.90
2012,12,04,08,24,8.90
2012,12,04,08,25,8.90
2012,12,04,08,26,8.90
2012,12,04,08,27,8.90
2012,12,04,08,28,8.90
2012,12,04,08,29,8.90
2012,12,04,08,30,8.90
2012,12,04,08,31,8.90
2012,12,04,08,32,8.90
2012,12,04,08,33,8.90
2012,12,04,08,34,8.90
2012,12,04,08,35,9.00
2012,12,04,08,36,9.00
2012,12,04,08,37,9.00
2012,12,04,08,38,9.10
2012,12,04,08,39,9.10
2012,12,04,08,40,9.10
2012,12,04,08,41,9.00
2012,12,04,08,42,9.00
2012,12,04,08,43,9.00
2012,12,04,08,44,9.00
2012,12,04,08,45,9.00
2012,12,04,08,46,8.90
2012,12,04,08,47,8.90
2012,12,04,08,48,8.90
2012,12,04,08,49,8.90
2012,12,04,08,50,8.80
2012,12,04,08,51,8.80
2012,12,04,08,52,8.80
2012,12,04,08,53,8.80
2012,12,04,08,54,8.80
2012,12,04,08,55,8.80
2012,12,04,08,56,8.80
2012,12,04,08,57,8.80
2012,12,04,08,58,8.70
2012,12,04,08,59,8.70
2012,12,04,09,00,8.70
2012,12,04,09,01,8.70
2012,12,04,09,02,8.70
2012,12,04,09,03,8.70
2012,12,04,09,04,8.70
2012,12,04,09,05,8.70
2012,12,04,09,06,8.70
2012,12,04,09,07,8.70
2012,12,04,09,08,8.70
2012,12,04,09,09,8.80
2012,12,04,09,10,8.80
2012,12,04,09,11,8.80
2012,12,04,09,12,8.80
2012,12,04,09,13,8.80
2012,12,04,09,14,8.80
2012,12,04,09,15,8.80
2012,12,04,09,16,8.80
2012,12,04,09,17,8.80
2012,12,04,09,18,8.80
2012,12,04,09,19,8.80
2012,12,04,09,20,8.80
2012,12,04,09,21,8.80
2012,12,04,09,22,8.80
2012,12,04,09,23,8.80
2012,12,04,09,24,8.80
2012,12,04,09,25,8.80
2012,12,04,09,26,8.80
2012,12,04,09,27,8.80
2012,12,04,09,28,8.80
2012,12,04,09,29,8.80
2012,12,04,09,30,8.80
2012,12,04,09,31,8.80
2012,12,04,09,32,8.80
2012,12,04,09,33,8.70
2012,12,04,09,34,8.70
2012,12,04,09,35,8.70
2012,12,04,09,36,8.70
2012,12,04,09,37,8.70
2012,12,04,09,38,8.70
2012,12,04,09,39,8.80
2012,12,04,09,40,8.80
2012,12,04,09,41,8.80
2012,12,04,09,42,8.80
2012,12,04,09,43,8.80
2012,12,04,09,44,8.90
2012,12,04,09,45,8.90
2012,12,04,09,46,8.90
2012,12,04,09,47,8.90
2012,12,04,09,48,8.90
2012,12,04,09,49,8.90
2012,12,04,09,50,8.90
2012,12,04,09,51,9.00
2012,12,04,09,52,9.00
2012,12,04,09,53,9.00
2012,12,04,09,54,9.10
2012,12,04,09,55,9.10
2012,12,04,09,56,9.10
2012,12,04,09,57,9.10
2012,12,04,09,58,9.10
2012,12,04,09,59,9.20
2012,12,04,10,00,9.20
2012,12,04,10,01,9.20
2012,12,04,10,02,9.20
2012,12,04,10,03,9.20
2012,12,04,10,04,9.20
2012,12,04,10,05,9.20
2012,12,04,10,06,9.20
2012,12,04,10,07,9.20
2012,12,04,10,08,9.20
2012,12,04,10,09,9.30
2012,12,04,10,10,9.30
2012,12,04,10,11,9.30
2012,12,04,10,12,9.30
2012,12,04,10,13,9.40
2012,12,04,10,14,9.40
2012,12,04,10,15,9.40
2012,12,04,10,16,9.40
2012,12,04,10,17,9.40
2012,12,04,10,18,9.40
2012,12,04,10,19,9.40
2012,12,04,10,20,9.40
2012,12,04,10,21,9.40
2012,12,04,10,22,9.40
2012,12,04,10,23,9.30
2012,12,04,10,24,9.30
2012,12,04,10,25,9.30
2012,12,04,10,26,9.30
2012,12,04,10,27,9.20
2012,12,04,10,28,9.20
2012,12,04,10,29,9.20
2012,12,04,10,30,9.20
2012,12,04,10,31,9.20
2012,12,04,10,32,9.20
2012,12,04,10,33,9.20
2012,12,04,10,34,9.20
2012,12,04,10,35,9.20
2012,12,04,10,36,9.20
2012,12,04,10,37,9.20
2012,12,04,10,38,9.20
2012,12,04,10,39,9.20
2012,12,04,10,40,9.20
2012,12,04,10,41,9.20
2012,12,04,10,42,9.20
2012,12,04,10,43,9.20
2012,12,04,10,44,9.20
2012,12,04,10,45,9.20
2012,12,04,10,46,9.30
2012,12,04,10,47,9.30
2012,12,04,10,48,9.30
2012,12,04,10,49,9.30
2012,12,04,10,50,9.30
2012,12,04,10,51,9.30
2012,12,04,10,52,9.30
2012,12,04,10,53,9.30
2012,12,04,10,54,9.30
2012,12,04,10,55,9.30
2012,12,04,10,56,9.30
2012,12,04,10,57,9.40
2012,12,04,10,58,9.40
2012,12,04,10,59,9.40
2012,12,04,11,00,9.40
2012,12,04,11,01,9.40
2012,12,04,11,02,9.40
2012,12,04,11,03,9.40
2012,12,04,11,04,9.50
2012,12,04,11,05,9.50
2012,12,04,11,06,9.50
2012,12,04,11,07,9.50
2012,12,04,11,08,9.40
2012,12,04,11,09,9.40
2012,12,04,11,10,9.50
2012,12,04,11,11,9.50
2012,12,04,11,12,9.50
2012,12,04,11,13,9.50
2012,12,04,11,14,9.50
2012,12,04,11,15,9.50
2012,12,04,11,16,9.60
2012,12,04,11,17,9.60
2012,12,04,11,18,9.60
2012,12,04,11,19,9.60
2012,12,04,11,20,9.60
2012,12,04,11,21,9.60
2012,12,04,11,22,9.70
2012,12,04,11,23,9.70
2012,12,04,11,24,9.70
2012,12,04,11,25,9.70
2012,12,04,11,26,9.70
2012,12,04,11,27,9.70
2012,12,04,11,28,9.60
2012,12,04,11,29,9.60
2012,12,04,11,30,9.60
2012,12,04,11,31,9.60
2012,12,04,11,32,9.60
2012,12,04,11,33,9.70
2012,12,04,11,34,9.70
2012,12,04,11,35,9.70
2012,12,04,11,36,9.70
2012,12,04,11,37,9.60
2012,12,04,11,38,9.60
2012,12,04,11,39,9.60
2012,12,04,11,40,9.60
2012,12,04,11,41,9.60
2012,12,04,11,42,9.60
2012,12,04,11,43,9.60
2012,12,04,11,44,9.60
2012,12,04,11,45,9.60
2012,12,04,11,46,9.60
2012,12,04,11,47,9.60
2012,12,04,11,48,9.60
2012,12,04,11,49,9.60
2012,12,04,11,50,9.60
2012,12,04,11,51,9.60
2012,12,04,11,52,9.60
2012,12,04,11,53,9.60
2012,12,04,11,54,9.60
2012,12,04,11,55,9.50
2012,12,04,11,56,9.50
2012,12,04,11,57,9.50
2012,12,04,11,58,9.50
2012,12,04,11,59,9.50
2012,12,04,12,00,9.50
2012,12,04,12,01,9.50
2012,12,04,12,02,9.50
2012,12,04,12,03,9.60
2012,12,04,12,04,9.60
2012,12,04,12,05,9.50
2012,12,04,12,06,9.50
2012,12,04,12,07,9.50
2012,12,04,12,08,9.40
2012,12,04,12,09,9.40
2012,12,04,12,10,9.30
2012,12,04,12,11,9.30
2012,12,04,12,12,9.20
2012,12,04,12,13,9.10
2012,12,04,12,14,9.00
2012,12,04,12,15,9.00
2012,12,04,12,16,8.90
2012,12,04,12,17,8.80
2012,12,04,12,18,8.70
2012,12,04,12,19,8.70
2012,12,04,12,20,8.60
2012,12,04,12,21,8.60
2012,12,04,12,22,8.50
2012,12,04,12,23,8.50
2012,12,04,12,24,8.40
2012,12,04,12,25,8.50
2012,12,04,12,26,8.50
2012,12,04,12,27,8.40
2012,12,04,12,28,8.40
2012,12,04,12,29,8.40
2012,12,04,12,30,8.40
2012,12,04,12,31,8.40
2012,12,04,12,32,8.50
2012,12,04,12,33,8.50
2012,12,04,12,34,8.40
2012,12,04,12,35,8.40
2012,12,04,12,36,8.40
2012,12,04,12,37,8.40
2012,12,04,12,38,8.40
2012,12,04,12,39,8.40
2012,12,04,12,40,8.50
2012,12,04,12,41,8.50
2012,12,04,12,42,8.60
2012,12,04,12,43,8.60
2012,12,04,12,44,8.60
2012,12,04,12,45,8.70
2012,12,04,12,46,8.70
2012,12,04,12,47,8.70
2012,12,04,12,48,8.70
2012,12,04,12,49,8.70
2012,12,04,12,50,8.70
2012,12,04,12,51,8.70
2012,12,04,12,52,8.70
2012,12,04,12,53,8.70
2012,12,04,12,54,8.70
2012,12,04,12,55,8.70
2012,12,04,12,56,8.70
2012,12,04,12,57,8.60
2012,12,04,12,58,8.60
2012,12,04,12,59,8.60
2012,12,04,13,00,8.60
2012,12,04,13,01,8.60
2012,12,04,13,02,8.60
2012,12,04,13,03,8.60
2012,12,04,13,04,8.60
2012,12,04,13,05,8.70
2012,12,04,13,06,8.70
2012,12,04,13,07,8.70
2012,12,04,13,08,8.70
2012,12,04,13,09,8.70
2012,12,04,13,10,8.70
2012,12,04,13,11,8.80
2012,12,04,13,12,8.80
2012,12,04,13,13,8.80
2012,12,04,13,14,8.90
2012,12,04,13,15,8.90
2012,12,04,13,16,8.90
2012,12,04,13,17,8.90
2012,12,04,13,18,8.80
2012,12,04,13,19,8.80
2012,12,04,13,20,8.80
2012,12,04,13,21,8.80
2012,12,04,13,22,8.70
2012,12,04,13,23,8.70
2012,12,04,13,24,8.70
2012,12,04,13,25,8.70
2012,12,04,13,26,8.70
2012,12,04,13,27,8.70
2012,12,04,13,28,8.70
2012,12,04,13,29,8.70
2012,12,04,13,30,8.70
2012,12,04,13,31,8.70
2012,12,04,13,32,8.70
2012,12,04,13,33,8.80
2012,12,04,13,34,8.80
2012,12,04,13,35,8.80
2012,12,04,13,36,8.80
2012,12,04,13,37,8.90
2012,12,04,13,38,8.90
2012,12,04,13,39,8.90
2012,12,04,13,40,8.90
2012,12,04,13,41,8.80
2012,12,04,13,42,8.80
2012,12,04,13,43,8.80
2012,12,04,13,44,8.80
2012,12,04,13,45,8.70
2012,12,04,13,46,8.70
2012,12,04,13,47,8.70
2012,12,04,13,48,8.60
2012,12,04,13,49,8.60
2012,12,04,13,50,8.60
2012,12,04,13,51,8.60
2012,12,04,13,52,8.60
2012,12,04,13,53,8.60
2012,12,04,13,54,8.60
2012,12,04,13,55,8.60
2012,12,04,13,56,8.70
2012,12,04,13,57,8.60
2012,12,04,13,58,8.60
2012,12,04,13,59,8.60
2012,12,04,14,00,8.60
2012,12,04,14,01,8.60
2012,12,04,14,02,8.50
2012,12,04,14,03,8.50
2012,12,04,14,04,8.40
2012,12,04,14,05,8.40
2012,12,04,14,06,8.40
2012,12,04,14,07,8.30
2012,12,04,14,08,8.30
2012,12,04,14,09,8.30
2012,12,04,14,10,8.30
2012,12,04,14,11,8.20
2012,12,04,14,12,8.20
2012,12,04,14,13,8.20
2012,12,04,14,14,8.10
2012,12,04,14,15,8.10
2012,12,04,14,16,8.10
2012,12,04,14,17,8.10
2012,12,04,14,18,8.00
2012,12,04,14,19,7.90
2012,12,04,14,20,7.90
2012,12,04,14,21,7.80
2012,12,04,14,22,7.70
2012,12,04,14,23,7.70
2012,12,04,14,24,7.60
2012,12,04,14,25,7.60
2012,12,04,14,26,7.50
2012,12,04,14,27,7.40
2012,12,04,14,28,7.40
2012,12,04,14,29,7.40
2012,12,04,14,30,7.40
2012,12,04,14,31,7.40
2012,12,04,14,32,7.40
2012,12,04,14,33,7.40
2012,12,04,14,34,7.40
2012,12,04,14,35,7.30
2012,12,04,14,36,7.30
2012,12,04,14,37,7.30
2012,12,04,14,38,7.30
2012,12,04,14,39,7.30
2012,12,04,14,40,7.30
2012,12,04,14,41,7.20
2012,12,04,14,42,7.20
2012,12,04,14,43,7.20
2012,12,04,14,44,7.20
2012,12,04,14,45,7.20
2012,12,04,14,46,7.20
2012,12,04,14,47,7.20
2012,12,04,14,48,7.20
2012,12,04,14,49,7.20
2012,12,04,14,50,7.20
2012,12,04,14,51,7.20
2012,12,04,14,52,7.20
2012,12,04,14,53,7.20
2012,12,04,14,54,7.20
2012,12,04,14,55,7.20
2012,12,04,14,56,7.20
2012,12,04,14,57,7.10
2012,12,04,14,58,7.10
2012,12,04,14,59,7.10
2012,12,04,15,00,7.10
2012,12,04,15,01,7.10
2012,12,04,15,02,7.10
2012,12,04,15,03,7.10
2012,12,04,15,04,7.10
2012,12,04,15,05,7.00
2012,12,04,15,06,7.00
2012,12,04,15,07,7.00
2012,12,04,15,08,6.90
2012,12,04,15,09,6.90
2012,12,04,15,10,6.90
2012,12,04,15,11,6.90
2012,12,04,15,12,6.90
2012,12,04,15,13,6.80
2012,12,04,15,14,6.90
2012,12,04,15,15,6.80
2012,12,04,15,16,6.80
2012,12,04,15,17,6.80
2012,12,04,15,18,6.80
2012,12,04,15,19,6.80
2012,12,04,15,20,6.80
2012,12,04,15,21,6.80
2012,12,04,15,22,6.80
2012,12,04,15,23,6.80
2012,12,04,15,24,6.80
2012,12,04,15,25,6.80
2012,12,04,15,26,6.80
2012,12,04,15,27,6.80
2012,12,04,15,28,6.80
2012,12,04,15,29,6.80
2012,12,04,15,30,6.80
2012,12,04,15,31,6.80
2012,12,04,15,32,6.80
2012,12,04,15,33,6.90
2012,12,04,15,34,6.90
2012,12,04,15,35,6.90
2012,12,04,15,36,6.90
2012,12,04,15,37,6.90
2012,12,04,15,38,6.90
2012,12,04,15,39,6.90
2012,12,04,15,40,6.90
2012,12,04,15,41,6.90
2012,12,04,15,42,6.90
2012,12,04,15,43,6.90
2012,12,04,15,44,6.90
2012,12,04,15,45,6.90
2012,12,04,15,46,6.90
2012,12,04,15,47,6.90
2012,12,04,15,48,6.90
2012,12,04,15,49,6.90
2012,12,04,15,50,6.90
2012,12,04,15,51,6.90
2012,12,04,15,52,7.00
2012,12,04,15,53,7.00
2012,12,04,15,54,7.00
2012,12,04,15,55,7.00
2012,12,04,15,56,7.00
2012,12,04,15,57,7.00
2012,12,04,15,58,7.00
2012,12,04,15,59,7.00
2012,12,04,16,00,7.10
2012,12,04,16,01,7.10
2012,12,04,16,02,7.10
2012,12,04,16,03,7.10
2012,12,04,16,04,7.10
2012,12,04,16,05,7.10
2012,12,04,16,06,7.00
2012,12,04,16,07,7.00
2012,12,04,16,08,7.00
2012,12,04,16,09,6.90
2012,12,04,16,10,6.90
2012,12,04,16,11,6.90
2012,12,04,16,12,6.90
2012,12,04,16,13,6.80
2012,12,04,16,14,6.80
2012,12,04,16,15,6.80
2012,12,04,16,16,6.80
2012,12,04,16,17,6.80
2012,12,04,16,18,6.80
2012,12,04,16,19,6.70
2012,12,04,16,20,6.70
2012,12,04,16,21,6.70
2012,12,04,16,22,6.70
2012,12,04,16,23,6.70
2012,12,04,16,24,6.70
2012,12,04,16,25,6.70
2012,12,04,16,26,6.70
2012,12,04,16,27,6.70
2012,12,04,16,28,6.70
2012,12,04,16,29,6.60
2012,12,04,16,30,6.60
2012,12,04,16,31,6.60
2012,12,04,16,32,6.60
2012,12,04,16,33,6.60
2012,12,04,16,34,6.60
2012,12,04,16,35,6.60
2012,12,04,16,36,6.60
2012,12,04,16,37,6.60
2012,12,04,16,38,6.60
2012,12,04,16,39,6.60
2012,12,04,16,40,6.60
2012,12,04,16,41,6.60
2012,12,04,16,42,6.60
2012,12,04,16,43,6.60
2012,12,04,16,44,6.60
2012,12,04,16,45,6.60
2012,12,04,16,46,6.60
2012,12,04,16,47,6.70
2012,12,04,16,48,6.70
2012,12,04,16,49,6.70
2012,12,04,16,50,6.70
2012,12,04,16,51,6.70
2012,12,04,16,52,6.70
2012,12,04,16,53,6.70
2012,12,04,16,54,6.70
2012,12,04,16,55,6.80
2012,12,04,16,56,6.80
2012,12,04,16,57,6.80
2012,12,04,16,58,6.80
2012,12,04,16,59,6.80
2012,12,04,17,00,6.80
2012,12,04,17,01,6.80
2012,12,04,17,02,6.80
2012,12,04,17,03,6.80
2012,12,04,17,04,6.80
2012,12,04,17,05,6.80
2012,12,04,17,06,6.80
2012,12,04,17,07,6.80
2012,12,04,17,08,6.80
2012,12,04,17,09,6.80
2012,12,04,17,10,6.80
2012,12,04,17,11,6.80
2012,12,04,17,12,6.80
2012,12,04,17,13,6.80
2012,12,04,17,14,6.70
2012,12,04,17,15,6.70
2012,12,04,17,16,6.70
2012,12,04,17,17,6.70
2012,12,04,17,18,6.70
2012,12,04,17,19,6.70
2012,12,04,17,20,6.70
2012,12,04,17,21,6.70
2012,12,04,17,22,6.70
2012,12,04,17,23,6.70
2012,12,04,17,24,6.70
2012,12,04,17,25,6.70
2012,12,04,17,26,6.70
2012,12,04,17,27,6.70
2012,12,04,17,28,6.70
2012,12,04,17,29,6.70
2012,12,04,17,30,6.70
2012,12,04,17,31,6.70
2012,12,04,17,32,6.70
2012,12,04,17,33,6.80
2012,12,04,17,34,6.80
2012,12,04,17,35,6.80
2012,12,04,17,36,6.80
2012,12,04,17,37,6.80
2012,12,04,17,38,6.80
2012,12,04,17,39,6.90
2012,12,04,17,40,6.90
2012,12,04,17,41,6.90
2012,12,04,17,42,6.90
2012,12,04,17,43,6.90
2012,12,04,17,44,6.90
2012,12,04,17,45,6.90
2012,12,04,17,46,6.90
2012,12,04,17,47,6.90
2012,12,04,17,48,6.90
2012,12,04,17,49,6.90
2012,12,04,17,50,6.90
2012,12,04,17,51,6.90
2012,12,04,17,52,6.90
2012,12,04,17,53,6.90
2012,12,04,17,54,6.90
2012,12,04,17,55,6.90
2012,12,04,17,56,6.90
2012,12,04,17,57,6.90
2012,12,04,17,58,6.90
2012,12,04,17,59,6.90
2012,12,04,18,00,6.80
2012,12,04,18,01,6.90
2012,12,04,18,02,6.80
2012,12,04,18,03,6.80
2012,12,04,18,04,6.90
2012,12,04,18,05,6.90
2012,12,04,18,06,6.90
2012,12,04,18,07,6.90
2012,12,04,18,08,6.90
2012,12,04,18,09,6.90
2012,12,04,18,10,6.90
2012,12,04,18,11,6.90
2012,12,04,18,12,6.90
2012,12,04,18,13,6.90
2012,12,04,18,14,6.90
2012,12,04,18,15,6.90
2012,12,04,18,16,6.90
2012,12,04,18,17,6.90
2012,12,04,18,18,6.80
2012,12,04,18,19,6.80
2012,12,04,18,20,6.80
2012,12,04,18,21,6.80
2012,12,04,18,22,6.80
2012,12,04,18,23,6.80
2012,12,04,18,24,6.80
2012,12,04,18,25,6.80
2012,12,04,18,26,6.80
2012,12,04,18,27,6.80
2012,12,04,18,28,6.80
2012,12,04,18,29,6.80
2012,12,04,18,30,6.80
2012,12,04,18,31,6.80
2012,12,04,18,32,6.80
2012,12,04,18,33,6.80
2012,12,04,18,34,6.90
2012,12,04,18,35,6.90
2012,12,04,18,36,6.90
2012,12,04,18,37,6.90
2012,12,04,18,38,6.90
2012,12,04,18,39,6.80
2012,12,04,18,40,6.80
2012,12,04,18,41,6.80
2012,12,04,18,42,6.80
2012,12,04,18,43,6.80
2012,12,04,18,44,6.80
2012,12,04,18,45,6.80
2012,12,04,18,46,6.80
2012,12,04,18,47,6.80
2012,12,04,18,48,6.80
2012,12,04,18,49,6.80
2012,12,04,18,50,6.80
2012,12,04,18,51,6.80
2012,12,04,18,52,6.80
2012,12,04,18,53,6.80
2012,12,04,18,54,6.80
2012,12,04,18,55,6.80
2012,12,04,18,56,6.80
2012,12,04,18,57,6.80
2012,12,04,18,58,6.90
2012,12,04,18,59,6.90
2012,12,04,19,00,6.90
2012,12,04,19,01,6.90
2012,12,04,19,02,6.90
2012,12,04,19,03,7.00
2012,12,04,19,04,7.00
2012,12,04,19,05,7.00
2012,12,04,19,06,7.00
2012,12,04,19,07,7.00
2012,12,04,19,08,7.10
2012,12,04,19,09,7.10
2012,12,04,19,10,7.10
2012,12,04,19,11,7.20
2012,12,04,19,12,7.20
2012,12,04,19,13,7.20
2012,12,04,19,14,7.20
2012,12,04,19,15,7.20
2012,12,04,19,16,7.20
2012,12,04,19,17,7.30
2012,12,04,19,18,7.30
2012,12,04,19,19,7.30
2012,12,04,19,20,7.30
2012,12,04,19,21,7.30
2012,12,04,19,22,7.30
2012,12,04,19,23,7.30
2012,12,04,19,24,7.30
2012,12,04,19,25,7.30
2012,12,04,19,26,7.30
2012,12,04,19,27,7.30
2012,12,04,19,28,7.30
2012,12,04,19,29,7.30
2012,12,04,19,30,7.30
2012,12,04,19,31,7.30
2012,12,04,19,32,7.30
2012,12,04,19,33,7.30
2012,12,04,19,34,7.30
2012,12,04,19,35,7.30
2012,12,04,19,36,7.20
2012,12,04,19,37,7.20
2012,12,04,19,38,7.20
2012,12,04,19,39,7.20
2012,12,04,19,40,7.10
2012,12,04,19,41,7.10
2012,12,04,19,42,7.10
2012,12,04,19,43,7.00
2012,12,04,19,44,7.00
2012,12,04,19,45,7.00
2012,12,04,19,46,6.90
2012,12,04,19,47,6.90
2012,12,04,19,48,6.90
2012,12,04,19,49,6.80
2012,12,04,19,50,6.70
2012,12,04,19,51,6.60
2012,12,04,19,52,6.50
2012,12,04,19,53,6.40
2012,12,04,19,54,6.30
2012,12,04,19,55,6.30
2012,12,04,19,56,6.20
2012,12,04,19,57,6.10
2012,12,04,19,58,6.00
2012,12,04,19,59,6.00
2012,12,04,20,00,6.00
2012,12,04,20,01,5.90
2012,12,04,20,02,5.90
2012,12,04,20,03,5.90
2012,12,04,20,04,5.90
2012,12,04,20,05,5.80
2012,12,04,20,06,5.80
2012,12,04,20,07,5.80
2012,12,04,20,08,5.80
2012,12,04,20,09,5.80
2012,12,04,20,10,5.80
2012,12,04,20,11,5.80
2012,12,04,20,12,5.70
2012,12,04,20,13,5.70
2012,12,04,20,14,5.70
2012,12,04,20,15,5.70
2012,12,04,20,16,5.70
2012,12,04,20,17,5.70
2012,12,04,20,18,5.70
2012,12,04,20,19,5.70
2012,12,04,20,20,5.70
2012,12,04,20,21,5.70
2012,12,04,20,22,5.60
2012,12,04,20,23,5.60
2012,12,04,20,24,5.60
2012,12,04,20,25,5.60
2012,12,04,20,26,5.60
2012,12,04,20,27,5.60
2012,12,04,20,28,5.60
2012,12,04,20,29,5.60
2012,12,04,20,30,5.60
2012,12,04,20,31,5.60
2012,12,04,20,32,5.60
2012,12,04,20,33,5.60
2012,12,04,20,34,5.60
2012,12,04,20,35,5.60
2012,12,04,20,36,5.60
2012,12,04,20,37,5.60
2012,12,04,20,38,5.50
2012,12,04,20,39,5.50
2012,12,04,20,40,5.50
2012,12,04,20,41,5.50